◎アポロ型小惑星 2006 BE55の接近    [From JSGA Web News No.60]



JSGA Web News No. 60                                              2006 Feb. 21



アポロ型特異小惑星 2006 BE55の接近



Web News No.50に記した次の注釈,

----------------------------------------------------------------------------

ここ数年間,1月から2月にかけての期間,多くの火球の出現が報告される.同様に,

この時期,特異小惑星の地球接近も多くなったような気がする.同じような軌道上を

動く火球・隕石群の存在があるのかも知れない.

----------------------------------------------------------------------------

にある今年1月・2月に発見された地球接近小惑星の「一連の接近」は,この小惑星

の接近で終了する.接近光度が18等級より暗いもの,発見,即,接近して取り上げら

れなかったものを省いたが,同様の小惑星の接近は,近未来まで続くだろう.ここ,

数年の間,毎年の1月・2月は,地球接近小惑星のかき入れどきとなろう.

============================================================================



 キットピークの91-cm f/3.0スペースウォッチ望遠鏡で2006年1月26日に撮影された

捜索フレーム上に発見された21等級の小惑星 2006 BE55は,2006年2月27.1日 UTに地

球に0.0414 AUまで接近する.この小惑星は,発見後,すでに24日間追跡された.

 次の軌道は,その発見から2月19日までに行なわれた76個の観測から決定したもの.

平均残差は 0".50.小惑星の接近時の光度は17等級,日々運動は接近1日前に11゚.5ま

で速くなる.なお,その直径は139-mほどと推測される.

               。

       Mo= 321.3748                Epoch = 2006 Mar. 6.0 TT

       ω = 125.8128                   e =   0.424761          H = 22.0

       Ω = 125.7681    (2000.0)       a =   1.196295 AU       G =  0.15

       i =   2.4234                   n゚=   0.7532628

       q =   0.688156 AU              P =   1.31 年





  美星における予報位置は,次のとおり.なお,位置予報は,我が国全域で使用でき

る.



OBSERVATORY: 300 133.544570.823371+0.565729Bisei Spaceguard Center-BATTeRS      

           SG

 

2006/  time  UT    α  (2000)   δ     △     Mag.  Daily Motion  Object   Sun 

 月 日  h  m  s  h  m  s     。  ,  "    AU     V       ,  PA 。    h。    A。   h。 

 2 24  13 00 00 15 02 09.6 +13 21 34  0.04627 17.6  553.6/ 88.1 - 2.7  252 -49.5

 2 24  14 00 00 15 03 44.3 +13 22 19  0.04611 17.6  553.2/ 88.2 + 9.0  260 -59.0

 2 24  15 00 00 15 05 19.1 +13 23 01  0.04595 17.6  552.7/ 88.3 +21.0  268 -64.5

 2 24  16 00 00 15 06 53.7 +13 23 42  0.04579 17.6  552.5/ 88.4 +33.1  276 -63.2

 2 24  17 00 00 15 08 28.4 +13 24 18  0.04564 17.6  553.2/ 88.6 +44.9  287 -55.8

 2 24  18 00 00 15 10 03.1 +13 24 52  0.04549 17.6  554.5/ 88.8 +55.9  301 -45.4

 2 24  19 00 00 15 11 38.1 +13 25 20  0.04535 17.6  556.7/ 88.9 +64.9  324 -33.7

 2 24  20 00 00 15 13 13.5 +13 25 45  0.04521 17.6  560.1/ 89.1 +68.9  359 -21.5

 2 24  21 00 00 15 14 49.5 +13 26 05  0.04507 17.6  564.5/ 89.3 +65.2   35 - 9.1 

         .                   .          .       .     .        .             . 



 2 25  14 00 00 15 44 27.8 +13 24 53  0.04315 17.8  632.7/ 90.6 + 1.6  255 -58.8

 2 25  15 00 00 15 46 16.2 +13 24 36  0.04304 17.8  631.1/ 90.7 +13.4  263 -64.1

 2 25  16 00 00 15 48 04.3 +13 24 16  0.04294 17.8  629.5/ 90.8 +25.4  271 -62.8

 2 25  17 00 00 15 49 52.1 +13 23 52  0.04285 17.8  628.6/ 91.0 +37.4  280 -55.5

 2 25  18 00 00 15 51 39.8 +13 23 23  0.04275 17.8  628.4/ 91.2 +49.0  291 -45.2

 2 25  19 00 00 15 53 27.5 +13 22 49  0.04267 17.8  628.8/ 91.4 +59.4  308 -33.5

 2 25  20 00 00 15 55 15.2 +13 22 10  0.04258 17.8  630.6/ 91.6 +67.1  335 -21.3

 2 25  21 00 00 15 57 03.1 +13 21 26  0.04250 17.8  633.2/ 91.8 +68.4   13 - 8.9

    .                   .          .       .     .        .             . 



 2 26  15 00 00 16 31 25.9 +12 57 49  0.04158 18.0  677.7/ 93.3 + 4.8  258 -63.8

 2 26  16 00 00 16 33 21.6 +12 56 11  0.04155 18.0  674.0/ 93.4 +16.7  266 -62.4

 2 26  17 00 00 16 35 16.6 +12 54 29  0.04151 18.1  670.9/ 93.6 +28.6  274 -55.2

 2 26  18 00 00 16 37 11.1 +12 52 43  0.04149 18.1  668.1/ 93.8 +40.5  283 -44.9

 2 26  19 00 00 16 39 05.1 +12 50 51  0.04146 18.1  666.0/ 94.0 +51.8  296 -33.2

 2 26  20 00 00 16 40 58.6 +12 48 55  0.04144 18.1  665.1/ 94.2 +61.6  315 -21.0

 2 26  21 00 00 16 42 52.0 +12 46 52  0.04143 18.1  665.1/ 94.4 +67.7  345 - 8.6

        .                   .          .       .     .        .             . 



 2 27  15 00 00 17 17 45.6 +11 59 57  0.04172 18.4  675.4/ 95.8 - 4.2  252 -63.4

 2 27  16 00 00 17 19 40.1 +11 57 06  0.04175 18.5  669.4/ 95.9 + 7.5  261 -62.1

 2 27  17 00 00 17 21 33.5 +11 54 12  0.04178 18.5  663.9/ 96.1 +19.4  269 -54.9

 2 27  18 00 00 17 23 26.0 +11 51 15  0.04182 18.5  658.6/ 96.3 +31.3  277 -44.6

 2 27  19 00 00 17 25 17.4 +11 48 14  0.04186 18.5  653.9/ 96.4 +43.0  288 -33.0

 2 27  20 00 00 17 27 08.1 +11 45 09  0.04191 18.5  650.2/ 96.6 +53.9  302 -20.8

 2 27  21 00 00 17 28 58.0 +11 42 00  0.04196 18.6  647.4/ 96.8 +62.8  323 - 8.4

           .                   .          .       .     .       .             . 



 2 28  16 00 00 18 03 28.8 +10 34 27  0.04352 19.0  618.3/ 98.1 - 1.4  256 -61.7

 2 28  17 00 00 18 05 12.6 +10 30 49  0.04362 19.1  611.3/ 98.2 +10.5  264 -54.6

 2 28  18 00 00 18 06 55.1 +10 27 10  0.04372 19.1  604.3/ 98.4 +22.5  273 -44.3

 2 28  19 00 00 18 08 36.4 +10 23 29  0.04382 19.1  597.7/ 98.5 +34.4  282 -32.7

 2 28  20 00 00 18 10 16.6 +10 19 46  0.04393 19.1  592.2/ 98.7 +45.8  293 -20.5

 2 28  21 00 00 18 11 55.7 +10 16 01  0.04404 19.2  587.3/ 98.9 +56.1  309 - 8.2

      .                   .          .       .     .        .             . 



 3  1  17 00 00 18 43 46.3 +08 57 39  0.04684 19.7  532.5/ 99.8 + 2.5  261 -54.2

 3  1  18 00 00 18 45 14.8 +08 53 51  0.04699 19.7  525.0/100.0 +14.5  269 -44.0

 3  1  19 00 00 18 46 42.0 +08 50 03  0.04715 19.8  517.9/100.1 +26.6  278 -32.4

 3  1  20 00 00 18 48 08.0 +08 46 14  0.04730 19.8  511.5/100.3 +38.3  288 -20.3

 3  1  21 00 00 18 49 32.9 +08 42 24  0.04747 19.8  505.9/100.5 +49.3  301 - 7.9

          .                   .          .       .     .        .             . 

 3  2  17 00 00 19 16 22.2 +07 26 19  0.05120 20.4  448.4/101.0 - 4.2  258 -53.9

 3  2  18 00 00 19 17 36.2 +07 22 45  0.05139 20.5  441.3/101.1 + 7.8  266 -43.7

 3  2  19 00 00 19 18 49.0 +07 19 11  0.05159 20.5  434.4/101.3 +19.9  275 -32.2

 3  2  20 00 00 19 20 00.5 +07 15 38  0.05178 20.5  428.2/101.5 +31.9  284 -20.0

 3  2  21 00 00 19 21 11.0 +07 12 05  0.05198 20.5  422.5/101.6 +43.3  296 - 7.6





軌道と残差:

 

2006 BE55

Epoch 2006 Mar. 6.0 TT = JDT 2453800.5                  Nakano

M 321.37482              (2000.0)            P               Q

n   0.75326281     Peri.  125.81285     -0.31537643     +0.94834624

a   1.1962952      Node   125.76808     -0.88373100     -0.28033090

e   0.4247608      Incl.    2.42344     -0.34577049     -0.14850589

P   1.31           H   22.0           G   0.15           U   7

Residuals in seconds of arc 

060126 691  0.2-  0.1-    060127 474  0.0   0.3-    060131 691  0.2+  0.0   

060126 691  0.0   0.0     060127 474  0.2+  0.3+    060131 691  0.5+  0.3+  

060126 691  0.1-  0.0     060127 474  0.3-  0.3+    060202 G96  0.3-  0.3-  

060126 G96  0.2-  0.3-    060127 474  0.1+  0.1-    060202 G96  0.5-  0.1-  

060126 G96  0.6-  0.3-    060127 474  0.4-  0.1-    060202 G96  0.1-  0.1-  

060126 G96  0.4-  0.4-    060127 474  1.6+  0.1+    060202 G96  0.3-  0.1-  

060126 G96  0.3+  0.1-    060127 474  1.1+  0.1+    060204 448  0.0   0.1+  

060126 291  0.3+  0.3+    060128 G96  0.2-  0.3-    060204 448  0.2-  0.1+  

060126 291  0.2-  0.3+    060128 G96  0.4-  0.5-    060204 448  0.1-  0.2+  

060126 291  0.0   0.1+    060128 G96  0.2-  0.2-    060207 G96  0.2+  0.1+  

060126 G96  0.5-  0.1-    060128 G96  0.1-  0.8-    060207 G96  0.1+  0.1+  

060126 G96  0.1-  0.2-    060128 291  0.3-  0.7+    060207 G96  0.4-  0.2+  

060126 G96  0.4-  0.0     060128 291  0.2-  0.7+    060207 G96  0.2-  0.3+  

060126 G96  0.3-  0.1-    060128 291  0.1-  0.4+    060208 703 (2.5-  0.3-) 

060126 246  0.4+  1.9+    060128 474  0.9+  0.0     060208 703  0.5-  0.4+  

060127 246  1.5-  0.7+    060128 474  0.4+  0.1-    060208 703  0.5+  0.1+  

060127 246  2.0+  0.9-    060128 474  0.9+  0.4-    060208 703  1.1+  0.3-  

060127 854  1.5-  0.2-    060128 474  0.3+  0.4-    060212 448  0.1+  0.1-  

060127 854  1.5+  0.1+    060128 474  0.6+  0.1-    060212 448  0.0   0.1-  

060127 854  0.0   0.1+    060128 474  0.1+  0.1-    060212 448  0.2-  0.0   

060127 291  0.7-  0.3-    060130 734 (1.9+  2.2+)   060219 A13  0.2+  0.1-  

060127 291  0.1+  0.3+    060130 734  1.6-  1.0-    060219 A13  0.1-  0.2-  

060127 291  0.0   0.3+    060131 734  0.2+  0.5+    060219 A13  0.0   0.3+  

060127 474  0.0   0.4+    060131 734  0.6-  0.8-    060219 A13  0.1+  0.2-  

060127 474  0.6-  0.4+    060131 734  0.0   0.3-    060219 A13  0.1+  0.2+  

060127 474  0.6+  0.3-    060131 691  0.3+  0.1-    060219 A13  0.2-  0.1+  

 

日本スペースガード協会            (c) Copyright JSGA 2006           中野 主一

NAKANO

         **** Don't distribute anyone except personal use only ****

                (C) Copyright 2006 OAA/ComputingSection

write mail from CFAD0::NAKANO on 2006-02-20 23:44:32(JST).

 



戻ります。